Temperature
9 9 9 9 9 9 9 9 9 9 9 9 9 9 9 9 8 8 8 8 8 8 8 8 8 7 7 6 6 5 5 4 4 3 3 2 2 2 1 1 1 1 1
8 8 8 8 8 8 8 8 8 8 8 8 8 8 8 8 7 7 7 7 7 7 7 7 6 6 6 5 5 4 4 3 3 2 2 1 1 1 0 0 -0 -0 -1
7 7 7 7 7 7 7 7 7 7 7 7 7 7 7 7 7 7 6 6 6 6 6 5 5 5 4 4 3 3 2 2 2 1 1 0 -0 -0 -1 -1 -1 -2 -2
6 6 7 7 7 6 6 6 6 6 6 6 6 6 6 6 6 5 5 5 5 5 4 4 4 3 3 2 2 1 1 1 0 -0 -0 -1 -1 -2 -2 -3 -2 -2 -2
6 6 6 6 5 5 5 5 5 5 5 5 5 5 5 5 5 4 4 4 4 3 3 2 2 2 1 1 1 0 -0 -0 -1 -1 -1 -2 -2 -3 -3 -4 -4 -4 -3
5 5 5 5 5 5 5 4 4 4 4 4 4 4 4 4 3 3 3 3 2 2 2 1 1 0 -0 -0 -1 -1 -1 -2 -2 -2 -3 -3 -3 -4 -4 -5 -5 -5 -4
4 4 4 4 4 4 4 4 4 3 3 3 3 3 3 2 2 2 2 2 1 1 0 0 -0 -1 -1 -1 -2 -2 -2 -3 -3 -3 -4 -4 -4 -5 -5 -5 -5 -6 -5
4 3 3 3 3 3 3 3 3 3 2 2 2 2 1 1 1 1 1 0 0 -0 -1 -1 -1 -1 -2 -2 -2 -2 -3 -3 -4 -4 -4 -4 -5 -5 -6 -6 -6 -6 -5
3 3 3 3 3 2 2 2 2 1 1 1 1 0 0 0 0 -0 -0 -1 -1 -1 -2 -2 -2 -2 -2 -3 -3 -3 -4 -4 -5 -5 -5 -5 -5 -6 -6 -6 -6 -6 -6
2 2 2 2 2 2 1 1 1 1 0 0 0 -0 -0 -1 -1 -1 -1 -1 -2 -2 -2 -2 -3 -3 -3 -4 -4 -4 -5 -5 -5 -5 -5 -5 -5 -6 -6 -6 -6 -7 -7
2 2 1 1 1 1 1 0 0 -0 -0 -0 -0 -1 -1 -1 -1 -1 -2 -2 -2 -3 -3 -3 -4 -4 -4 -4 -5 -5 -5 -6 -6 -6 -5 -6 -6 -6 -6 -6 -6 -7 -7
1 1 1 1 1 0 0 -0 -0 -0 -0 -1 -1 -1 -2 -2 -2 -2 -2 -3 -3 -3 -4 -4 -4 -4 -5 -5 -5 -5 -6 -6 -6 -6 -6 -6 -6 -6 -6 -6 -6 -6 -6
1 1 1 0 0 -0 -0 -0 -0 -1 -1 -1 -1 -2 -2 -2 -2 -3 -3 -3 -4 -4 -4 -4 -5 -5 -5 -5 -5 -6 -6 -6 -6 -6 -6 -6 -6 -6 -6 -6 -6 -6 -6
1 1 0 0 0 -0 -0 -1 -1 -1 -1 -1 -1 -2 -2 -3 -3 -3 -3 -3 -4 -4 -4 -5 -5 -5 -5 -6 -6 -6 -6 -6 -6 -6 -6 -6 -6 -6 -6 -6 -6 -6 -6
1 0 0 0 0 -0 -0 -1 -1 -1 -1 -1 -2 -2 -2 -3 -3 -4 -4 -4 -4 -5 -5 -5 -5 -5 -6 -6 -6 -6 -6 -7 -7 -7 -7 -7 -7 -7 -6 -7 -7 -7 -7
1 0 0 0 0 0 -0 -0 -1 -1 -1 -2 -2 -2 -3 -3 -3 -4 -4 -4 -5 -5 -5 -6 -6 -6 -6 -6 -7 -7 -7 -7 -7 -7 -7 -7 -7 -7 -7 -7 -7 -8 -8
1 1 0 0 0 -0 -0 -0 -1 -1 -1 -2 -2 -2 -3 -3 -4 -4 -4 -5 -5 -5 -6 -6 -6 -6 -7 -7 -7 -7 -7 -7 -7 -7 -7 -7 -8 -8 -8 -8 -8 -8 -8
1 1 0 0 0 -0 -0 -1 -1 -1 -1 -2 -2 -3 -3 -3 -4 -4 -5 -5 -5 -6 -6 -6 -7 -7 -7 -7 -7 -7 -7 -7 -7 -8 -8 -8 -8 -8 -8 -8 -8 -8 -9
1 0 0 0 -0 -0 -1 -1 -1 -1 -2 -2 -2 -3 -3 -4 -4 -5 -5 -5 -6 -6 -6 -7 -7 -7 -7 -7 -7 -7 -7 -8 -8 -8 -8 -8 -8 -8 -8 -8 -9 -9 -9
1 0 0 -0 -0 -0 -1 -1 -1 -2 -2 -2 -3 -3 -4 -4 -4 -5 -5 -6 -6 -6 -6 -7 -7 -7 -7 -7 -8 -8 -8 -8 -8 -8 -8 -8 -8 -9 -9 -9 -9 -9 -9
1 0 0 -0 -0 -1 -1 -1 -2 -2 -2 -3 -3 -4 -4 -4 -5 -5 -5 -6 -6 -6 -7 -7 -7 -7 -7 -8 -8 -8 -8 -8 -8 -8 -8 -8 -8 -9 -9 -9 -9 -9 -9
0 0 -0 -0 -1 -1 -1 -1 -2 -2 -2 -3 -3 -4 -4 -5 -5 -5 -6 -6 -6 -7 -7 -7 -7 -7 -7 -8 -8 -8 -8 -8 -8 -8 -8 -8 -9 -9 -9 -9 -9 -9 -9
0 -0 -0 -1 -1 -1 -1 -2 -2 -2 -3 -3 -4 -4 -4 -5 -5 -5 -6 -6 -6 -7 -7 -7 -7 -7 -7 -8 -8 -8 -8 -8 -8 -9 -9 -9 -9 -9 -9 -9 -9 -9 -9
-0 -1 -1 -1 -1 -1 -1 -2 -2 -3 -3 -3 -4 -4 -4 -5 -5 -5 -6 -6 -6 -7 -7 -7 -7 -7 -7 -8 -8 -8 -8 -8 -9 -9 -9 -9 -9 -9 -9 -9 -9 -9 -9
-1 -1 -1 -1 -1 -2 -2 -2 -2 -3 -3 -4 -4 -4 -5 -5 -5 -6 -6 -6 -6 -7 -7 -7 -7 -7 -7 -8 -8 -8 -8 -8 -9 -9 -9 -9 -9 -9 -9 -9 -9 -9 -9
-1 -1 -1 -1 -2 -2 -2 -2 -3 -3 -3 -4 -4 -4 -5 -5 -5 -6 -6 -6 -6 -7 -7 -7 -7 -8 -8 -8 -8 -8 -8 -8 -9 -9 -9 -9 -9 -9 -9 -9 -9 -9 -9
Wind_Speed
5 5 5 5 6 5 4 4 4 3 3 2 2 1 1 1 2 2 2 3 4 4 4 5 5 6 5 4 3 3 2 2 3 1 1 1 3 3 4 7 9 10 12
5 5 5 6 6 7 7 7 6 5 5 5 5 5 5 5 5 4 4 5 5 5 6 6 6 5 6 4 3 4 3 2 2 2 1 2 3 3 3 4 7 9 11
5 5 6 6 7 7 7 7 8 8 8 8 8 8 8 7 7 7 7 7 7 6 6 7 6 7 6 4 4 4 3 2 2 2 1 1 2 2 3 4 5 7 10
5 6 6 7 7 7 7 8 8 8 8 9 9 9 8 8 8 8 9 9 9 8 7 7 7 6 6 5 4 3 3 2 2 1 1 1 2 2 2 3 4 3 4
5 6 6 6 6 7 7 8 8 8 9 8 9 9 8 8 8 9 9 9 9 9 8 7 7 7 6 4 3 2 2 1 1 0 1 1 1 2 2 2 3 3 5
6 6 6 6 7 7 7 8 8 9 9 9 9 9 9 8 12 13 10 8 8 8 7 6 6 6 5 5 4 2 1 1 1 0 1 2 3 3 2 2 2 3 4
6 6 6 6 7 7 7 8 8 8 9 9 9 9 9 10 13 14 13 9 8 7 6 5 4 4 5 3 2 2 2 3 3 2 3 3 3 3 2 3 3 5 7
5 6 6 6 6 7 7 8 8 7 8 8 8 8 8 10 13 13 12 8 6 6 5 4 4 3 3 2 2 2 2 3 5 3 4 4 4 4 4 5 5 6 7
5 5 5 6 6 7 7 7 6 7 7 7 6 7 8 8 11 10 9 5 5 5 4 3 3 2 1 2 2 3 3 4 6 7 8 10 12 13 11 4 4 5 7
5 5 5 6 6 7 7 6 6 6 6 6 6 6 7 6 9 9 8 4 4 3 2 1 1 1 3 4 2 3 4 4 4 5 7 9 9 11 12 5 4 4 5
5 5 6 6 6 6 6 5 5 5 5 6 6 6 6 6 7 8 7 4 3 2 2 1 1 3 5 7 6 3 6 5 3 4 5 5 5 4 4 3 2 3 5
6 6 6 5 5 5 6 5 4 5 5 5 5 4 4 4 5 5 6 5 4 2 1 1 2 5 7 8 6 6 8 7 3 4 4 4 4 4 4 4 8 9 10
6 6 6 6 5 5 5 5 4 3 4 3 3 3 2 2 3 4 4 4 5 2 2 4 6 7 7 6 7 8 6 3 3 3 4 5 4 4 5 6 7 10 12
7 6 5 5 5 4 3 3 3 3 3 3 3 2 2 1 2 2 2 3 4 3 3 5 7 7 6 6 6 5 3 3 3 3 4 5 5 5 6 6 7 7 8
7 6 5 5 5 4 4 3 4 3 3 3 2 2 2 1 0 2 2 2 2 3 4 3 3 3 3 3 3 3 3 3 4 3 4 6 7 7 7 6 6 7 9
7 6 5 4 4 4 4 4 7 5 6 6 5 4 2 1 1 2 4 5 6 7 4 3 3 3 3 3 4 4 4 4 4 4 5 6 7 8 9 8 8 8 10
7 6 5 5 5 4 4 4 3 3 4 4 4 3 1 0 1 3 5 6 7 6 2 3 3 3 4 4 4 4 5 5 5 6 7 7 8 8 9 9 9 10 11
6 6 6 4 4 4 4 4 3 3 2 1 2 3 2 2 3 4 5 5 4 3 2 3 4 4 4 4 5 5 6 6 6 6 7 8 8 9 9 10 10 11 12
6 5 5 4 4 4 4 3 3 3 2 2 1 2 3 3 4 5 4 2 3 4 4 4 4 5 5 5 5 6 6 7 8 8 8 9 8 9 10 10 11 16 15
6 8 7 5 4 4 4 3 3 3 2 2 2 2 2 1 2 3 3 3 4 5 5 5 5 5 5 5 6 6 7 7 8 8 9 9 9 9 11 12 12 13 13
6 7 9 6 5 5 4 4 3 3 3 3 3 3 4 3 4 4 4 4 4 5 5 5 5 6 6 6 6 7 8 8 8 9 9 9 9 10 11 12 13 13 13
6 6 5 5 5 5 4 4 3 3 3 4 3 4 6 4 4 4 5 5 5 5 5 5 6 6 6 6 7 8 9 9 9 9 9 10 10 11 12 12 13 13 14
6 7 6 5 4 6 5 4 4 4 4 4 4 3 4 4 4 5 5 5 5 5 6 6 6 7 8 10 10 8 9 10 10 10 11 11 11 12 12 13 16 16 16
7 7 7 6 5 5 5 5 4 4 4 4 4 4 4 4 5 6 6 5 5 6 7 8 8 9 12 13 14 14 15 17 16 14 14 14 14 14 14 14 16 17 17
7 7 6 6 6 6 5 5 5 5 5 4 4 4 4 5 5 6 6 5 6 6 8 9 10 11 14 16 16 17 20 23 23 20 17 13 15 16 16 17 16 18 18
6 7 6 6 6 6 6 5 5 5 5 5 4 4 5 5 5 6 6 6 6 6 7 9 12 14 17 17 19 21 23 24 25 26 21 14 15 15 16 16 19 18 19
Wind_Direction
25 23 19 14 7 3 7 9 14 18 22 35 42 60 72 73 96 115 128 132 139 127 119 124 121 116 116 106 102 106 97 116 163 142 142 164 174 193 221 236 251 260 269
27 33 30 24 23 28 30 27 31 38 41 45 53 60 63 63 66 80 92 97 109 113 111 113 114 112 107 104 104 99 99 92 132 149 156 186 207 213 222 243 258 265 267
34 42 43 37 39 40 37 37 44 50 52 54 59 62 63 66 69 72 80 84 87 93 102 109 110 112 108 104 102 101 101 100 103 137 165 201 234 233 238 252 258 265 273
48 53 51 47 47 48 47 47 50 56 60 61 64 65 67 70 73 77 82 85 86 85 87 95 102 108 112 115 113 121 127 123 128 146 185 229 250 254 240 252 273 272 283
62 62 59 57 55 56 56 55 57 61 65 66 69 68 68 71 78 86 88 91 91 88 82 82 88 101 112 112 112 119 115 116 132 168 217 269 274 287 271 260 277 296 292
73 69 66 66 65 63 62 63 65 65 66 69 70 72 71 77 89 91 93 89 91 92 91 86 93 95 100 99 109 128 145 158 154 209 255 259 269 276 282 293 293 308 298
79 74 73 76 75 71 73 71 69 70 71 72 73 75 77 83 88 90 91 91 89 90 93 92 87 85 76 61 45 22 329 294 272 251 244 255 270 271 283 289 276 269 269
87 84 84 85 86 84 81 78 76 75 76 77 77 80 83 84 87 88 88 86 87 84 81 80 80 72 75 58 13 342 302 293 283 265 237 250 261 259 246 252 259 271 274
91 89 92 97 98 93 88 83 82 84 82 80 81 84 87 86 85 83 80 80 81 78 75 75 75 60 24 346 337 311 304 299 301 297 285 282 283 284 280 269 270 283 292
100 97 98 101 103 100 98 96 93 94 95 93 85 81 86 86 83 77 71 73 74 70 63 71 72 23 333 326 327 320 309 304 323 325 308 299 294 290 289 265 228 247 275
110 105 102 102 105 106 102 99 100 97 93 90 87 80 81 87 80 73 63 60 59 53 34 13 334 332 326 321 321 311 294 302 304 300 296 294 294 291 293 293 262 233 254
119 114 110 110 113 116 114 109 107 107 103 98 94 85 75 78 82 69 55 46 39 38 4 353 332 326 324 321 317 307 309 317 315 300 296 296 299 298 298 302 296 282 264
125 122 122 119 118 124 126 129 126 117 113 111 107 104 91 75 71 63 42 26 16 14 343 332 325 322 323 321 314 315 320 318 305 299 297 294 291 290 297 299 291 282 275
135 135 137 135 133 125 119 123 120 114 111 113 114 115 108 85 65 37 10 0 357 354 344 324 320 316 313 305 309 314 300 271 281 276 286 292 299 300 296 291 292 298 293
146 149 152 147 138 123 101 87 104 87 118 126 124 120 120 128 18 10 7 358 346 321 330 321 313 316 322 319 314 307 305 308 310 300 298 301 303 301 298 296 288 291 287
158 159 155 149 143 137 128 99 85 105 96 97 105 109 95 117 20 346 335 329 324 321 329 316 312 316 315 314 315 315 314 311 305 301 299 297 297 298 298 296 290 288 289
163 160 159 159 155 154 147 142 136 112 115 121 129 129 133 120 326 323 321 320 313 312 311 301 300 300 298 299 299 298 297 297 296 293 291 291 291 291 291 293 293 291 290
157 162 163 160 155 153 153 154 153 157 168 193 188 188 202 261 291 301 311 321 312 308 278 279 284 287 287 288 289 290 291 294 292 290 288 287 286 287 288 288 289 289 291
160 160 157 150 147 148 148 149 155 165 176 186 192 220 231 269 286 286 293 273 280 285 282 279 277 278 278 277 279 283 285 287 287 288 286 284 283 283 284 286 288 289 291
164 164 158 153 153 154 155 161 170 178 188 201 216 221 218 249 272 277 266 258 263 269 273 274 275 275 275 274 277 280 282 282 284 283 282 282 282 281 282 285 286 288 288
162 167 166 161 167 170 172 179 183 185 198 213 226 231 232 232 251 261 263 260 259 263 267 269 271 274 274 274 275 276 278 280 279 279 281 281 281 282 282 282 283 284 285
165 168 171 172 170 173 177 180 183 193 206 220 236 247 255 247 249 258 261 264 261 258 257 262 266 266 265 267 271 275 277 278 278 278 278 280 281 282 283 283 284 285 285
166 169 171 171 172 185 187 185 191 201 214 223 231 237 244 243 249 255 260 264 265 265 269 267 267 270 272 270 267 266 272 275 277 278 281 283 282 282 282 283 283 285 285
173 175 177 178 180 184 190 196 201 208 216 224 232 238 243 247 253 260 262 265 265 269 272 271 270 270 274 279 278 273 271 273 276 275 273 274 278 280 281 281 283 283 285
178 180 183 184 187 193 197 201 207 214 221 228 232 239 246 251 255 261 263 264 267 270 275 277 277 277 277 279 280 281 282 284 285 284 280 278 278 278 280 281 283 285 285
183 186 188 187 191 195 198 204 211 215 223 231 234 238 245 252 257 262 266 268 271 274 279 283 280 281 283 285 285 286 290 291 292 292 291 287 284 283 283 284 285 285 286
Height
1469 1468 1468 1468 1468 1468 1467 1467 1467 1467 1467 1467 1467 1468 1468 1469 1470 1470 1471 1472 1472 1473 1474 1475 1476 1476 1477 1478 1478 1478 1479 1480 1481 1481 1483 1484 1484 1485 1486 1486 1486 1486 1485
1466 1465 1465 1465 1464 1464 1463 1463 1463 1463 1463 1463 1463 1463 1463 1464 1465 1465 1466 1467 1467 1468 1469 1469 1470 1471 1472 1473 1474 1474 1475 1475 1477 1477 1478 1479 1480 1480 1480 1480 1480 1480 1479
1463 1463 1463 1462 1462 1461 1461 1460 1460 1460 1459 1459 1459 1459 1460 1460 1461 1461 1462 1463 1463 1464 1465 1465 1466 1467 1468 1469 1470 1471 1471 1472 1473 1473 1474 1475 1476 1475 1475 1475 1475 1474 1474
1461 1461 1460 1460 1459 1459 1458 1458 1458 1458 1457 1457 1457 1458 1458 1458 1458 1459 1459 1460 1461 1461 1462 1463 1463 1465 1465 1466 1467 1467 1468 1469 1470 1470 1470 1471 1471 1471 1471 1470 1469 1469 1468
1460 1459 1459 1458 1458 1458 1457 1457 1457 1457 1456 1456 1456 1456 1457 1457 1457 1457 1458 1458 1459 1459 1460 1461 1462 1463 1464 1464 1465 1466 1466 1466 1467 1467 1467 1467 1467 1467 1467 1466 1465 1463 1462
1458 1458 1457 1457 1457 1457 1457 1457 1457 1456 1456 1456 1456 1456 1456 1456 1456 1457 1457 1458 1458 1459 1460 1460 1461 1462 1463 1463 1463 1464 1464 1464 1464 1464 1464 1464 1463 1463 1462 1462 1461 1459 1456
1457 1457 1457 1457 1457 1457 1457 1457 1457 1456 1456 1456 1456 1456 1456 1456 1456 1457 1457 1458 1458 1459 1459 1460 1461 1461 1462 1462 1462 1462 1462 1461 1462 1462 1461 1460 1460 1459 1459 1458 1456 1455 1452
1456 1456 1457 1457 1457 1457 1457 1457 1457 1457 1457 1457 1457 1457 1457 1457 1458 1458 1458 1459 1459 1460 1460 1460 1460 1460 1460 1460 1460 1460 1459 1459 1458 1458 1457 1456 1456 1455 1454 1454 1452 1449 1447
1456 1456 1456 1457 1457 1457 1457 1457 1457 1458 1458 1458 1458 1458 1458 1458 1459 1459 1459 1459 1460 1460 1460 1460 1460 1459 1459 1458 1458 1457 1456 1455 1455 1454 1454 1453 1453 1452 1451 1449 1447 1445 1442
1455 1456 1456 1457 1457 1458 1458 1458 1458 1458 1459 1459 1459 1460 1460 1460 1460 1460 1460 1460 1460 1460 1459 1459 1458 1458 1457 1456 1455 1454 1453 1452 1452 1451 1450 1450 1449 1448 1447 1445 1444 1441 1438
1455 1456 1457 1457 1458 1458 1458 1459 1459 1459 1460 1460 1461 1461 1461 1461 1461 1461 1460 1460 1459 1459 1458 1458 1457 1456 1455 1454 1453 1452 1451 1450 1448 1448 1447 1446 1445 1444 1442 1441 1440 1437 1434
1455 1456 1457 1458 1458 1459 1459 1460 1460 1461 1461 1461 1461 1461 1462 1461 1461 1461 1460 1459 1458 1458 1457 1456 1455 1454 1453 1451 1450 1449 1448 1447 1445 1444 1443 1442 1441 1440 1438 1437 1435 1432 1430
1455 1456 1457 1458 1458 1459 1460 1460 1461 1461 1461 1462 1462 1462 1462 1461 1461 1460 1459 1458 1457 1456 1455 1454 1453 1452 1450 1449 1448 1446 1445 1444 1442 1441 1440 1438 1437 1435 1433 1431 1429 1426 1424
1454 1455 1457 1458 1458 1459 1460 1461 1461 1461 1462 1462 1462 1462 1461 1461 1460 1459 1458 1457 1456 1455 1453 1452 1451 1449 1448 1446 1445 1444 1442 1441 1439 1438 1436 1434 1433 1430 1428 1426 1423 1419 1416
1454 1455 1456 1458 1459 1459 1460 1461 1461 1461 1462 1462 1461 1461 1461 1460 1459 1458 1457 1455 1454 1452 1451 1450 1448 1447 1445 1444 1442 1441 1439 1438 1436 1434 1432 1430 1428 1425 1423 1420 1417 1414 1410
1453 1454 1456 1457 1458 1459 1460 1460 1461 1461 1461 1461 1461 1460 1459 1459 1457 1456 1455 1453 1452 1450 1449 1447 1446 1444 1442 1441 1439 1438 1436 1435 1433 1431 1428 1426 1423 1420 1417 1415 1412 1408 1404
1451 1453 1455 1456 1457 1458 1459 1459 1460 1460 1460 1460 1459 1458 1458 1457 1455 1454 1453 1451 1450 1448 1446 1445 1443 1441 1440 1438 1436 1434 1433 1431 1429 1427 1424 1421 1419 1415 1412 1409 1406 1402 1398
1450 1452 1454 1455 1456 1457 1457 1458 1458 1458 1458 1457 1457 1456 1455 1454 1453 1452 1450 1448 1447 1445 1444 1442 1440 1438 1437 1435 1433 1431 1429 1427 1425 1422 1419 1417 1414 1410 1407 1404 1400 1396 1392
1448 1450 1452 1453 1454 1455 1456 1456 1456 1456 1456 1455 1455 1454 1453 1451 1450 1449 1447 1446 1444 1442 1441 1439 1437 1435 1433 1431 1429 1427 1425 1422 1420 1417 1414 1411 1408 1405 1401 1398 1394 1390 1386
1446 1448 1450 1451 1452 1453 1453 1454 1454 1453 1453 1453 1452 1451 1450 1448 1447 1446 1444 1443 1441 1439 1437 1435 1434 1432 1429 1427 1425 1423 1420 1417 1415 1412 1409 1406 1402 1399 1395 1391 1387 1383 1379
1443 1445 1447 1448 1449 1450 1451 1451 1451 1451 1450 1450 1449 1448 1447 1445 1444 1442 1441 1439 1437 1435 1434 1432 1430 1427 1425 1423 1420 1418 1415 1412 1409 1406 1403 1399 1396 1392 1389 1385 1380 1376 1372
1439 1441 1443 1445 1446 1447 1448 1448 1448 1448 1447 1446 1445 1445 1443 1442 1440 1439 1437 1435 1434 1432 1429 1427 1425 1423 1421 1418 1415 1412 1409 1406 1403 1400 1396 1393 1389 1385 1381 1377 1373 1369 1364
1435 1437 1439 1441 1442 1443 1444 1444 1444 1444 1443 1443 1442 1441 1439 1438 1437 1435 1433 1431 1429 1427 1425 1423 1420 1418 1415 1413 1410 1407 1403 1400 1397 1393 1389 1385 1382 1378 1374 1369 1365 1361 1356
1431 1433 1435 1437 1438 1439 1440 1440 1440 1440 1439 1439 1438 1437 1435 1434 1432 1431 1429 1427 1424 1422 1420 1418 1415 1412 1410 1407 1404 1401 1397 1394 1390 1387 1383 1379 1374 1370 1366 1362 1357 1353 1348
1426 1429 1431 1432 1433 1434 1435 1435 1435 1435 1435 1434 1433 1432 1431 1430 1428 1426 1424 1422 1420 1417 1415 1412 1409 1406 1403 1400 1397 1394 1391 1388 1384 1380 1376 1372 1367 1363 1359 1354 1349 1344 1339
1422 1424 1426 1428 1429 1430 1430 1431 1431 1431 1430 1430 1429 1428 1427 1425 1423 1421 1419 1417 1414 1412 1410 1407 1404 1401 1397 1394 1391 1387 1384 1381 1377 1374 1370 1365 1360 1355 1351 1345 1340 1335 1329